Tracking 30923 objects as of 1-Jul-2025
HD Live streaming from Space Station
objects crossing your sky now

RADUGA 20

Track RADUGA 20 now!
RADUGA 20 is classified as:


NORAD ID: 17611
Int'l Code: 1987-028A
Perigee: 36,922.0 km
Apogee: 37,172.6 km
Inclination: 13.8 °
Period: 1,500.6 minutes
Semi major axis: 43418 km
RCS: 2.0634 m2 (large)
Launch date: March 19, 1987
Source: Commonwealth of Independent States (former USSR) (CIS)
Launch site: TYURATAM MISSILE AND SPACE COMPLEX (TTMTR)
Your satellite tracking list
SL-8 DEB
Track 1 satellite(s)




NASA's NSSDC Master Catalog

Two Line Element Set (TLE):
1 17611U 87028A   25181.47504861 -.00000086  00000-0  00000-0 0  9998
2 17611  13.7864 330.7845 0028861 165.0023 206.9750  0.95960656134945
Source of the keplerian elements: AFSPC